Location: Crescent
(42.8242°N, 73.7329°W)
Time: 08:44:37
(UTC+00:00)

Vanguard 1 - Pass Details

Date: 20 February 2026
Orbit: 653 x 3818 km, 34.2° (Epoch: 12 March)

Event Time Altitude Azimuth Distance (km) Brightness Sun altitude
Rises 20:18:30 0° 243° (WSW) 4,417 14.9 21.2°
Reaches altitude 10° 20:20:58 10° 238° (WSW) 3,739 15.2 20.8°
Maximum altitude 20:30:59 56° 164° (SSE) 2,638 12.7 19.4°
Drops below altitude 10° 20:48:59 10° 93° (E) 6,406 13.8 16.6°
Sets 20:54:48 0° 90° (E) 7,718 14.1 15.7°
